[[{"header":{"parameterUnit":"m.s-1","parameterCategory":1,"la1":30.2991,"la2":30.254,"lo1":-89.0895,"lo2":-89.0444,"dy":0.0017,"dx":0.0017,"nx":28,"ny":28,"refTime":"2025-02-04T09:00:00:Z","depth":0,"parameterNumber":2,"parameterNumberName":"U-component_of_WINDS"},"data":[0,0,0,0,0,0,0,0,0,0,0,0,0,0,0,0,0,0,0,0,0,0,0,0,0,0,0,0,0,0,0,0,0,0,0,0,0,0,0,0,0,0,0,0,0,0,0,0,0,0,0,0,0,0,0,0,0,0,-1.7891,-1.7891,0,-1.7865,-1.7865,-1.7865,-1.7817,-1.7817,-1.7816,-1.7815,-1.7789,-1.7789,-1.7789,0,0,0,0,0,0,0,0,0,0,0,0,0,-1.7901,-1.7902,-1.7892,-1.7891,-1.7891,-1.7865,-1.7865,-1.7865,-1.7818,-1.7816,-1.7815,-1.7814,-1.7789,-1.7789,-1.7789,0,0,0,0,0,0,0,0,0,0,0,0,0,-1.7888,-1.7902,-1.7892,-1.7864,-1.7862,-1.7865,-1.7865,-1.7865,-1.7818,-1.7816,-1.7815,-1.7814,-1.7789,-1.7789,-1.7789,-1.7818,0,0,-1.779,-1.779,0,0,0,0,0,0,0,0,-1.7889,-1.7888,-1.7869,-1.7866,-1.7863,-1.7843,-1.7859,-1.7849,-1.7818,-1.7834,-1.7815,-1.7813,-1.7808,-1.7807,-1.7805,-1.7817,-1.7815,-1.779,-1.779,-1.779,-1.779,0,0,0,0,0,0,0,-1.789,-1.7889,-1.7881,-1.7868,-1.7865,-1.7854,-1.785,-1.7857,-1.7829,-1.7833,-1.7829,-1.7827,-1.7806,-1.7805,-1.7804,-1.7815,-1.779,-1.779,-1.779,-1.779,-1.7848,-1.7849,0,0,0,0,0,0,-1.7895,-1.789,-1.7882,-1.788,-1.7873,-1.7855,-1.7851,-1.7851,-1.7829,-1.7824,-1.7828,-1.7825,-1.7805,-1.7804,-1.7803,-1.7834,-1.779,-1.779,-1.779,-1.7847,-1.7848,-1.785,0,0,0,0,0,0,-1.7895,-1.7895,-1.7883,-1.7884,-1.7882,-1.7856,-1.7856,-1.7851,-1.7849,-1.7825,-1.782,-1.7831,-1.7804,-1.7802,-1.7814,-1.7832,-1.779,-1.7791,-1.7845,-1.7847,-1.7849,-1.7897,0,0,0,0,0,0,-1.7896,-1.7895,-1.7906,-1.7885,-1.7882,-1.7895,-1.7858,-1.7852,-1.785,-1.7845,-1.7827,-1.7823,-1.7803,-1.7814,-1.7814,-1.7832,-1.7791,-1.7843,-1.7846,-1.7848,-1.7893,-1.79,-1.7906,0,0,0,0,0,-1.7896,-1.792,-1.7906,-1.7906,-1.7894,-1.7896,-1.7894,-1.787,-1.7852,-1.7862,-1.7846,-1.7823,-1.7831,-1.7816,-1.7816,-1.7833,-1.7842,-1.7845,-1.7848,-1.7891,-1.7899,-1.7906,0,0,0,0,0,0,-1.7944,-1.7917,-1.7901,-1.7919,-1.791,-1.7888,-1.79,-1.788,-1.7876,-1.7872,-1.7843,-1.7839,-1.7855,-1.7845,-1.7829,-1.7859,-1.7833,-1.7836,-1.7865,-1.7872,-1.7879,-1.788,-1.7791,0,0,0,0,0,-1.7957,-1.796,-1.7936,-1.7955,-1.7951,-1.7927,-1.7926,-1.7909,-1.7898,-1.7894,-1.788,-1.7871,-1.787,-1.7871,-1.787,-1.7892,-1.7887,-1.7904,-1.7911,-1.7916,-1.7919,-1.7929,-1.7936,-1.786,-1.786,-1.786,0,0,-1.7983,-1.7968,-1.7972,-1.7964,-1.7955,-1.7959,-1.7923,-1.7929,-1.7932,-1.7895,-1.7905,-1.7894,-1.7882,-1.7899,-1.7906,-1.7891,-1.7939,-1.792,-1.7925,-1.7924,-1.7933,-1.794,-1.7946,-1.7862,-1.7862,-1.7862,0,0,-1.8032,-1.8022,-1.8035,-1.8027,-1.8014,-1.7997,-1.8001,-1.7981,-1.7973,-1.7982,-1.7954,-1.7957,-1.7958,-1.795,-1.7947,-1.7993,-1.7972,-1.7994,-1.8026,-1.8036,-1.8042,-1.8047,-1.8063,-1.8069,-1.7997,-1.7997,-1.7997,0,-1.8066,-1.807,-1.8045,-1.8052,-1.8049,-1.8016,-1.8029,-1.8022,-1.801,-1.8008,-1.7993,-1.7993,-1.7983,-1.7997,-1.8008,-1.8006,-1.8009,-1.7995,-1.8044,-1.8048,-1.8053,-1.8067,-1.8073,-1.8,-1.7999,-1.7999,-1.7999,0,-1.8113,-1.8116,-1.8129,-1.8117,-1.8115,-1.8126,-1.8102,-1.8103,-1.8086,-1.8071,-1.8081,-1.8068,-1.8063,-1.8065,-1.8049,-1.8077,-1.8068,-1.8049,-1.8021,-1.8063,-1.8076,-1.8081,-1.8004,-1.8003,-1.8002,-1.8001,0,0,-1.819,-1.8164,-1.8169,-1.8162,-1.8145,-1.8148,-1.8157,-1.8152,-1.8153,-1.8146,-1.8152,-1.8154,-1.8135,-1.8131,-1.8114,-1.8123,-1.8159,-1.8102,-1.8101,-1.8112,-1.8188,-1.8202,-1.8209,-1.8145,-1.8146,-1.8147,-1.8189,0,-1.8234,-1.8248,-1.8225,-1.8243,-1.8246,-1.8215,-1.8223,-1.8213,-1.82,-1.8201,-1.8186,-1.8187,-1.8163,-1.8161,-1.8168,-1.8153,-1.8174,-1.815,-1.815,-1.815,-1.8153,-1.8216,-1.823,-1.827,-1.8194,-1.8194,-1.8195,0,-1.8288,-1.8282,-1.8301,-1.8282,-1.8283,-1.829,-1.8283,-1.8284,-1.8273,-1.8263,-1.8258,-1.8237,-1.8245,-1.8219,-1.8228,-1.8213,-1.8211,-1.8204,-1.8205,-1.8203,-1.8174,-1.8214,-1.8282,-1.8288,-1.8203,-1.8202,-1.8202,0,-1.8341,-1.8339,-1.8349,-1.8345,-1.8324,-1.833,-1.8321,-1.8308,-1.8307,-1.8301,-1.8299,-1.8295,-1.8292,-1.8289,-1.8268,-1.8251,-1.8279,-1.8252,-1.827,-1.8271,-1.8277,-1.8276,-1.8344,-1.8279,-1.8279,-1.8278,-1.8278,0,-1.8392,-1.8404,-1.8372,-1.8379,-1.8392,-1.8366,-1.838,-1.8368,-1.8357,-1.836,-1.8334,-1.8338,-1.831,-1.831,-1.8294,-1.8303,-1.8303,-1.8294,-1.8289,-1.8296,-1.8297,-1.8294,-1.829,-1.828,-1.828,-1.8279,-1.8279,0,-1.8453,-1.8432,-1.8441,-1.8421,-1.8416,-1.8426,-1.8408,-1.8413,-1.8399,-1.8403,-1.8403,-1.838,-1.8379,-1.8358,-1.8353,-1.8342,-1.8358,-1.8349,-1.8362,-1.8358,-1.8377,-1.8375,-1.8445,-1.8452,-1.8383,-1.8384,-1.8384,0,-1.8486,-1.8495,-1.8475,-1.8475,-1.8468,-1.8469,-1.8467,-1.8442,-1.8441,-1.8429,-1.8435,-1.8432,-1.8429,-1.843,-1.8412,-1.8408,-1.8398,-1.8423,-1.8397,-1.8403,-1.8397,-1.8396,-1.8396,-1.8428,-1.8428,-1.8429,-1.843,0,-1.8547,-1.8536,-1.8534,-1.8529,-1.8527,-1.8521,-1.8514,-1.8516,-1.8489,-1.8489,-1.8488,-1.8485,-1.848,-1.8478,-1.847,-1.8462,-1.8441,-1.8438,-1.8442,-1.8448,-1.8454,-1.845,-1.8375,-1.8436,-1.8436,-1.8435,-1.8435,-1.8435,-1.8594,-1.86,-1.8587,-1.8585,-1.8577,-1.8571,-1.8574,-1.856,-1.8559,-1.8552,-1.8538,-1.8539,-1.8527,-1.8516,-1.8509,-1.8509,-1.8496,-1.8502,-1.8504,-1.8505,-1.8508,-1.8455,-1.8508,-1.8508,-1.8507,-1.8507,-1.8507,0,-1.8653,-1.8643,-1.8641,-1.8632,-1.8631,-1.8612,-1.8603,-1.8603,-1.8604,-1.8595,-1.8592,-1.859,-1.8588,-1.857,-1.8566,-1.8569,-1.856,-1.8569,-1.8567,-1.8565,-1.852,-1.8517,-1.8576,-1.8576,-1.8576,-1.8576,-1.8576,-1.8576,-1.8683,-1.8691,-1.8679,-1.8684,-1.8673,-1.8674,-1.867,-1.8664,-1.8657,-1.8656,-1.8654,-1.8642,-1.863,-1.8624,-1.862,-1.8615,-1.8614,-1.8626,-1.8618,-1.8576,-1.8569,-1.8562,-1.8559,-1.8627,-1.8627,-1.8663,-1.8663,-1.8664]},{"header":{"parameterUnit":"m.s-1","parameterCategory":1,"la1":30.2991,"la2":30.254,"lo1":-89.0895,"lo2":-89.0444,"dy":0.0017,"dx":0.0017,"nx":28,"ny":28,"refTime":"2025-02-04T09:00:00:Z","depth":0,"parameterNumber":3,"parameterNumberName":"V-component_of_WINDS"},"data":[0,0,0,0,0,0,0,0,0,0,0,0,0,0,0,0,0,0,0,0,0,0,0,0,0,0,0,0,0,0,0,0,0,0,0,0,0,0,0,0,0,0,0,0,0,0,0,0,0,0,0,0,0,0,0,0,0,0,1.7766,1.7766,0,1.7775,1.7775,1.7775,1.7763,1.7763,1.7762,1.7762,1.777,1.777,1.7771,0,0,0,0,0,0,0,0,0,0,0,0,0,1.7739,1.774,1.7766,1.7766,1.7767,1.7775,1.7775,1.7775,1.7763,1.7763,1.7762,1.7761,1.777,1.777,1.7771,0,0,0,0,0,0,0,0,0,0,0,0,0,1.775,1.774,1.7766,1.7762,1.7761,1.7775,1.7775,1.7775,1.7763,1.7762,1.7762,1.7761,1.7769,1.777,1.7771,1.779,0,0,1.7774,1.7774,0,0,0,0,0,0,0,0,1.7749,1.7751,1.7762,1.7762,1.7762,1.7767,1.7768,1.778,1.7763,1.7762,1.7762,1.7761,1.7769,1.777,1.7773,1.779,1.7791,1.7774,1.7775,1.7775,1.7775,0,0,0,0,0,0,0,1.7748,1.775,1.777,1.7762,1.7762,1.7759,1.776,1.7771,1.7769,1.7762,1.7762,1.7763,1.7769,1.7772,1.7773,1.7791,1.7774,1.7775,1.7775,1.7776,1.7825,1.7826,0,0,0,0,0,0,1.7748,1.775,1.7769,1.777,1.7754,1.776,1.7761,1.7766,1.7769,1.7769,1.7763,1.7762,1.7771,1.7772,1.7774,1.7797,1.7775,1.7776,1.7776,1.7825,1.7825,1.7826,0,0,0,0,0,0,1.7748,1.775,1.7769,1.776,1.7762,1.7761,1.7767,1.7767,1.777,1.777,1.777,1.7767,1.7771,1.7772,1.7786,1.7797,1.7776,1.7777,1.7824,1.7825,1.7826,1.7844,0,0,0,0,0,0,1.7747,1.775,1.7757,1.776,1.7762,1.7782,1.7768,1.7767,1.7772,1.777,1.7773,1.7773,1.777,1.7785,1.7787,1.7798,1.7778,1.7823,1.7824,1.7825,1.7842,1.7846,1.7848,0,0,0,0,0,1.7746,1.7761,1.7758,1.776,1.7771,1.7782,1.7784,1.7781,1.7773,1.778,1.778,1.7773,1.7796,1.7787,1.7789,1.78,1.7822,1.7824,1.7825,1.7841,1.7845,1.7848,0,0,0,0,0,0,1.7759,1.7761,1.7757,1.7774,1.7778,1.778,1.7789,1.7784,1.7791,1.7789,1.7784,1.7785,1.7801,1.7802,1.7792,1.782,1.7807,1.781,1.7819,1.7822,1.7825,1.7825,1.7779,0,0,0,0,0,1.7764,1.7773,1.7774,1.7789,1.7791,1.779,1.7795,1.7792,1.7796,1.7798,1.7799,1.7803,1.7811,1.7816,1.7824,1.7842,1.7843,1.7851,1.7854,1.7857,1.7859,1.7871,1.7875,1.7832,1.7832,1.7832,0,0,1.7774,1.7776,1.7782,1.7792,1.7795,1.7805,1.7792,1.7802,1.781,1.7799,1.7813,1.7814,1.7818,1.7835,1.7843,1.7837,1.7871,1.7859,1.7861,1.7862,1.7873,1.7877,1.788,1.7833,1.7833,1.7833,0,0,1.7798,1.78,1.7813,1.7817,1.7822,1.7821,1.7824,1.7827,1.7828,1.7842,1.7835,1.7843,1.7857,1.7861,1.7865,1.7891,1.7885,1.7893,1.7909,1.7921,1.7924,1.7927,1.7938,1.7942,1.7895,1.7896,1.7896,0,1.781,1.7824,1.782,1.7832,1.7837,1.7829,1.7842,1.7846,1.7853,1.7856,1.7849,1.7868,1.787,1.7888,1.7895,1.7897,1.7902,1.7894,1.7924,1.7927,1.793,1.794,1.7944,1.7897,1.7897,1.7896,1.7896,0,1.784,1.785,1.786,1.7868,1.7874,1.7886,1.7885,1.7891,1.7888,1.7888,1.7903,1.7905,1.7914,1.7918,1.7914,1.7936,1.7932,1.7925,1.7913,1.7935,1.7945,1.7949,1.7898,1.7898,1.7897,1.7897,0,0,1.7872,1.7879,1.7883,1.7887,1.7892,1.79,1.7913,1.7921,1.7928,1.7933,1.7944,1.7956,1.795,1.7954,1.7951,1.796,1.7983,1.7952,1.7952,1.7959,1.801,1.8017,1.8021,1.7979,1.798,1.798,1.801,0,1.7897,1.792,1.7917,1.7939,1.7949,1.7941,1.7952,1.7957,1.7958,1.7966,1.7966,1.7976,1.7966,1.7969,1.7978,1.7979,1.7994,1.7976,1.799,1.7991,1.7991,1.8026,1.8033,1.8061,1.8014,1.8014,1.8015,0,1.793,1.7937,1.796,1.7966,1.797,1.798,1.7989,1.7997,1.8002,1.8002,1.8007,1.8003,1.8016,1.8003,1.8021,1.8009,1.8015,1.8016,1.8017,1.802,1.8005,1.8031,1.807,1.8075,1.802,1.802,1.8019,0,1.7954,1.7969,1.7985,1.7989,1.7995,1.8003,1.8005,1.801,1.8016,1.8023,1.8027,1.8036,1.8041,1.8048,1.8046,1.8036,1.8065,1.8051,1.8066,1.8067,1.8074,1.8074,1.8116,1.8075,1.8075,1.8074,1.8074,0,1.7983,1.7998,1.7997,1.8007,1.8023,1.802,1.8036,1.8038,1.8042,1.8053,1.8046,1.8056,1.8052,1.8062,1.806,1.8077,1.8079,1.808,1.8079,1.8081,1.8082,1.8086,1.8085,1.8076,1.8075,1.8075,1.8075,0,1.8013,1.8012,1.803,1.8034,1.8036,1.8048,1.8052,1.8062,1.8062,1.8076,1.8079,1.8079,1.809,1.8089,1.8101,1.81,1.8121,1.8117,1.812,1.812,1.8135,1.8135,1.8183,1.819,1.8143,1.8143,1.8143,0,1.8032,1.8044,1.805,1.8057,1.8061,1.8072,1.8078,1.8075,1.8082,1.809,1.8099,1.811,1.8119,1.8138,1.8139,1.8149,1.8146,1.8163,1.8148,1.815,1.8149,1.8149,1.8151,1.8166,1.8167,1.8167,1.8167,0,1.8068,1.8068,1.8077,1.8088,1.8096,1.8104,1.8111,1.8117,1.8114,1.8123,1.8135,1.8142,1.8155,1.8167,1.8176,1.8179,1.8174,1.8172,1.8176,1.8179,1.8181,1.8182,1.813,1.8171,1.8171,1.8171,1.817,1.817,1.8095,1.8105,1.8112,1.8123,1.8128,1.8136,1.8146,1.8147,1.8158,1.8169,1.8166,1.818,1.8186,1.8199,1.8202,1.8214,1.8208,1.8213,1.8215,1.8217,1.822,1.8178,1.8215,1.8215,1.8215,1.8215,1.8214,0,1.8131,1.8136,1.8146,1.8157,1.8166,1.816,1.8168,1.8176,1.8189,1.8195,1.8205,1.8219,1.823,1.8233,1.8244,1.8252,1.825,1.8255,1.8256,1.8257,1.8224,1.822,1.8257,1.8257,1.8257,1.8257,1.8257,1.8257,1.8152,1.817,1.8171,1.8192,1.8195,1.821,1.8215,1.8222,1.8227,1.8244,1.8254,1.8255,1.826,1.8272,1.8282,1.8282,1.8287,1.8294,1.8294,1.8263,1.8259,1.8255,1.8251,1.8295,1.8295,1.8326,1.8327,1.8327]}]]